Weather Roundup
Issued by NWS

Home | Current Version | Previous Version | Graphics & Text | Print | Product List | Glossary Off
Versions: 1 2 3 4 5 6 7 8 9 10 11 12 13 14 15 16 17 18 19 20 21 22 23 24 25 26 27 28 29 30 31 32 33 34 35 36 37 38 39 40 41 42 43 44 45 46 47 48 49 50

000
NZUS93 KARX 261710
HRRWXR

CURRENT HOURLY OBSERVATIONS ACROSS
MUCH OF THE UPPER MISSISSIPPI VALLEY
NATIONAL WEATHER SERVICE LA CROSSE WI
1200 PM CDT TUE JUL 26 2016


...SOUTHEAST MINNESOTA...


CITY           SKY/WX    TMP DP  RH WIND       PRES   REMARKS
ROCHESTER      SUNNY     82  69  64 S6        30.11S
ROCHESTER/MAYO FAIR      83  65  54 W5        30.10S
WINONA         SUNNY     82  64  54 W5        30.07S
AUSTIN         SUNNY     81  68  65 CALM      30.10S
ALBERT LEA     SUNNY     82  68  61 SW5       30.09F
DODGE CENTER   SUNNY     82  68  61 SW5       30.10S
PRESTON        SUNNY     81  66  60 W3        30.11F
OWATONNA       SUNNY     82  66  57 W3        30.09S
FARIBAULT      SUNNY     84  66  54 SW7       30.08S
$$

...ELSEWHERE IN MINNESOTA...


CITY           SKY/WX    TMP DP  RH WIND       PRES   REMARKS
MINNEAPOLIS    MOSUNNY   86  64  47 SW14      30.04F
INTNL FALLS    MOSUNNY   81  62  52 VRB3      29.97S
DULUTH         CLOUDY    78  66  66 W9        29.96F
RED WING       MOSUNNY   84  66  54 SW6       30.05S
REDWOOD FALLS  SUNNY     84  63  49 S7        30.04F
MANKATO        SUNNY     82  66  57 SW6       30.08S
WORTHINGTON    SUNNY     82  68  62 SW13G18   30.09F
FAIRMONT       SUNNY     82  63  51 S8        30.07F
$$

...SOUTHWEST WISCONSIN...


CITY           SKY/WX    TMP DP  RH WIND       PRES   REMARKS
LA CROSSE      MOSUNNY   85  67  54 W7G17     30.07S
PRAIRIE DU CHI SUNNY     82  58  42 CALM      30.08S
BOSCOBEL       MOSUNNY   85  62  46 W3        30.08F
LONE ROCK      SUNNY     82  63  52 CALM      30.08F
PLATTEVILLE    SUNNY     81  65  57 CALM      30.09F
FORT MC COY    SUNNY     84  64  50 W7        30.09S
CAMP DOUGLAS   MOSUNNY   82  66  57 VRB1      30.08S
MAUSTON-NEW LI PTSUNNY   83  65  54 W5        30.08R
VIROQUA        FAIR      82  62  51 CALM      30.11S
WIS DELLS      SUNNY     82  61  48 CALM      30.09S
$$

...ELSEWHERE IN WISCONSIN...


CITY           SKY/WX    TMP DP  RH WIND       PRES   REMARKS
MILWAUKEE      MOSUNNY   83  60  45 SE7       30.06F
MADISON        MOSUNNY   82  63  52 SW8       30.07F
GREEN BAY      SUNNY     83  69  62 W6        30.04F
EAU CLAIRE     MOSUNNY   85  67  54 SW9       30.04F
BLACK RVR FLS  FAIR      84  65  51 SW6       30.07S
MEDFORD        SUNNY     80  68  67 W9        30.07F
WAUSAU         SUNNY     84  65  52 W8        30.04F
WIS RAPIDS     MOSUNNY   85  63  47 SW6       30.08F
MARSHFIELD     MOSUNNY   84  67  56 SW10      30.08S
RICE LAKE      SUNNY     82  66  57 SW12      30.05S
$$

...NORTHEAST IOWA...


CITY           SKY/WX    TMP DP  RH WIND       PRES   REMARKS
WATERLOO       MOSUNNY   82  64  54 SE5       30.08S
DUBUQUE        MOSUNNY   79  64  60 S3        30.10F
DECORAH        PTSUNNY   81  66  61 CALM      30.09F
MASON CITY     SUNNY     83  66  56 VRB3      30.11S
CHARLES CITY   SUNNY     81  63  54 CALM      30.11S
OELWEIN        SUNNY     81  64  57 NE5       30.10F
$$

...ELSEWHERE IN IOWA...


CITY           SKY/WX    TMP DP  RH WIND       PRES   REMARKS
DES MOINES     MOSUNNY   85  65  51 SE3       30.08S
IOWA CITY      PTSUNNY   83  67  58 SE6       30.09F
FORT DODGE     SUNNY     82  66  57 CALM      30.11S
MARSHALLTOWN   SUNNY     82  67  60 VRB5      30.09S
CEDAR RAPIDS   PTSUNNY   82  67  60 VRB6      30.08F
$$

...NORTHERN ILLINOIS...


CITY           SKY/WX    TMP DP  RH WIND       PRES   REMARKS
CHICAGO-OHARE  MOSUNNY   84  61  45 NE7       30.05F
CHICAGO-MIDWAY PTSUNNY   85  64  49 E8        30.05F
MOLINE         MOSUNNY   85  64  49 E7        30.06F
ROCKFORD       MOSUNNY   84  63  49 E6        30.08F
PEORIA         MOSUNNY   84  68  58 SE5       30.05S
$$

NOTE: "FAIR" INDICATES FEW OR NO CLOUDS BELOW 12,000 FEET WITH NO
SIGNIFICANT WEATHER AND/OR OBSTRUCTIONS TO VISIBILITY. WIND
SPEEDS ARE IN MILES-PER-HOUR.




USA.gov is the U.S. government's official web portal to all federal, state and local government web resources and services.